Showing default

GLOBAL-32, 64231

Orbit data source: Space-Track

GLOBAL-32, 64231 is a payload satellite owned by BlackSky Global (US) in LEO that was launched on Mon, 02 Jun 2025 UTC via an ELECTRON launch vehicle from the Rocket Lab Launch Complex (RLLC). Payload-class satellites include a variety of spacecraft equipped with specific instruments for various scientific and technological missions. These include communications satellites like Starlink; space stations such as the ISS; scientific satellites like the Hubble; Earth observation satellites from companies like Planet Labs, Umbra, and HawkEye 360; GPS; miniature CubeSats for education and research; and military/defense satellites.

Loading next visibility...
Identifier
64231, 2025-118B
Orbit
LEO
Country
Flag of USUS
Related business
Manufacturer
LeoStella
Mission
Operational Commercial Imaging
Bus & Motor
BSKY, Unknown motor
Mass
138 kg wet, 134 kg dry
Launch date (UTC)
2025-06-02 (1 year ago)
Launch vehicle
ELECTRON
Launch site
Rocket Lab Launch Complex (RLLC)
Object type
Payload
Rocket body
Debris
Shape & HBR
Box + 2 Pan, 1.5 m
Radar Cross Section
2.545 m², Large (>1 m²)

Expand to show TLE details & history
Last TLE update: 14 hours ago

TLE from 14 hours ago
0 GLOBAL-32
1 64231U 25118B   26171.24965424  .00011544  00000-0  30697-3 0  9999
2 64231  58.9931 120.0734 0014344  44.6769 315.5460 15.38645729 58717
Epoch: 2026-06-20T05:59Z
TLE epoch observation values (Epoch: 2026-06-20T05:59:30.126Z)
Latitude
-0°
Longitude
121.73089°
Altitude
444.638 km
Speed
7.65 km/s
True Right ascension
08h 00m 17s
True Declination
0° 00' 00"
Sunlit
Object was in daylight at epoch
Visualization orbit readout
Latitude
Unknown
Longitude
Unknown
Altitude
Unknown
Speed
Unknown
Apparent Right ascension
Unknown
Apparent Declination
Unknown
Sunlit
N/A
Visualization observer readout
Local Sidereal Time
07:12:45
Azimuth
Unknown
Elevation
Unknown
Doppler factor
Unknown
Orbital elements
Apogee altitude
459.253 km
Perigee altitude
439.666 km
Semi-major axis
6,827.597 km
Eccentricity
0.00143
Inclination
58.9931°
RAAN
120.0734°
Arg. of periapsis
44.6769°
True anomaly
315.43074°
Mean anomaly
315.546°
Eccentric anomaly
315.48838°
Mean motion
3.84717 °/min
Orbital period
93.58 mins
BSTAR
0.00030697
Loading maneuver chart data...
Computing Atmospheric mass density...
Loading historical data...
Loading historical data...
Loading historical data...
Loading historical data...
Loading historical data...
Loading historical data...
Loading historical data...
Other satellites on launch #118 in the year 2025 (2025-06-02 UTC)

Documentation

Showing up to 5 results
|